Regional Weather Roundup
Issued by NWS

Home | Current Version | Previous Version | Graphics & Text | Print | Product List | Glossary On
Versions: 1 2 3 4 5 6 7 8 9 10 11 12 13 14 15 16 17 18 19 20 21 22 23 24 25 26 27 28 29 30 31 32 33 34 35 36 37 38 39 40 41 42 43 44 45 46 47 48 49 50
000
ASUS45 KCYS 230510
RWRWY

WYOMING REGIONAL WEATHER ROUNDUP
NATIONAL WEATHER SERVICE CHEYENNE WY
1100 PM MDT TUE JUL 22 2014

NOTE:  "FAIR" INDICATES FEW OR NO CLOUDS BELOW 12,000 FEET
WITH NO SIGNIFICANT WEATHER AND/OR OBSTRUCTIONS TO VISIBILITY.

WYZ001-230600-
YELLOWSTONE NATIONAL PARK

CITY           SKY/WX    TMP DP  RH WIND       PRES   REMARKS
LK YELLOWSTONE   N/A     52  43  71 CALM      30.48S
W YELLOWSTONE  NOT AVBL

$$
WYZ002>013-054>058-071-098>099-230600-
NORTHERN WYOMING

CITY           SKY/WX    TMP DP  RH WIND       PRES   REMARKS
JACKSON        CLEAR     57  45  62 N6        30.34S
CODY           CLEAR     70  46  43 N8        30.29S
GREYBULL       CLEAR     82  47  29 NW5       30.14R
WORLAND        CLEAR     75  48  38 N6        30.16R
SHERIDAN       PTCLDY    65  57  75 W7        30.31S
BUFFALO        PTCLDY    70  53  54 NW18G31   30.38R
GILLETTE       MOCLDY    74  57  55 NE24      30.31R
HULETT         FAIR      68  61  77 MISG      30.32
NEWCASTLE      FAIR      70  50  49 SE7       30.26

$$
WYZ014>020-022>026-101>103-230600-
CENTRAL WYOMING

CITY           SKY/WX    TMP DP  RH WIND       PRES   REMARKS
BIG PINEY      CLEAR     59  31  34 NW8       30.39S
PINEDALE       CLEAR     55  41  58 NW7       30.41S
DUBOIS         FAIR      61  32  33 NW8       30.41S
LANDER         CLEAR     73  31  21 SW10      30.24S
RIVERTON       CLEAR     80  34  19 E3        30.26R
CASPER         CLEAR     64  50  60 W7        30.25R
DOUGLAS        CLEAR     73  56  54 SE10      30.25R

$$
WYZ021-027>030-104>119-230600-
SOUTHERN WYOMING

CITY           SKY/WX    TMP DP  RH WIND       PRES   REMARKS
EVANSTON       CLEAR     73  35  25 E8        30.37S
KEMMERER       CLEAR    N/A N/A N/A N12       30.40S
FORT BRIDGER   FAIR      76  25  15 CALM      30.40
ROCK SPRINGS   CLEAR     75  22  13 E7        30.36R
DIXON          FAIR      69  29  22 E9        30.38R
RAWLINS        CLEAR     67  22  18 N8        30.37S
SARATOGA       FAIR      63  30  29 SE8       30.40S
LARAMIE        CLEAR     67  50  54 S9        30.45R
CHEYENNE       CLEAR     73  57  57 S13       30.39R
TORRINGTON     CLEAR     73  59  61 E10       30.23R
PINE BLUFFS    FAIR      73  57  56 SE8       30.33R

$$


USA.gov is the U.S. government's official web portal to all federal, state and local government web resources and services.